Main page
METAR-TAF:

METAR-TAF

Airports :

Sania Ramel Airport

Tétouan, Morocco

latitude: 35-35N, longitude: 005-20W, elevation: 10 m

Current weather observation

The report was made 32 minutes ago, at 11:00 UTC
Wind 1 kt from variable directions
Temperature 18°C
Humidity 64%
Pressure 1009 hPa
Visibility: 8000 m
Few clouds at a height of 2700 ft

METAR: GMTN 031100Z VRB01KT 8000 FEW027 18/11 Q1009 NOSIG

Time: 12:32 (11:32 UTC)


TAF: missing

Weather observations and forecasts of more than 4000 airports (METAR and TAF reports).

The available stations are represented by yellow and red dots on the map.

Hover mouse over dot to see the name of the station.

Then click to see weather observations and forecasts.

To change the map : click on the green buttons with a black cross to zoom in, on the green button with a dash to zoom out, or on the green arrows for adjacent maps.


METAR-TAF: